StationID,Date,MaxTemp,MinTemp,Precipitation,Snowfall,SnowDepth
"CA001064321","1966-02-01",33.08,26.06,15.00,15.00,
"CA001064321","1966-02-02",32.00,28.94,231.00,213.00,
"CA001064321","1966-02-03",32.00,28.94,86.00,86.00,
"CA001064321","1966-02-04",32.00,28.94,396.00,396.00,
"CA001064321","1966-02-05",33.98,28.94,163.00,163.00,
"CA001064321","1966-02-06",32.00,28.94,56.00,5.00,
"CA001064321","1966-02-07",35.06,26.06,102.00,86.00,
"CA001064321","1966-02-08",37.94,30.92,140.00,0.00,
"CA001064321","1966-02-09",39.02,33.08,127.00,0.00,
"CA001064321","1966-02-10",33.98,32.00,457.00,0.00,
"CA001064321","1966-02-11",35.96,28.94,69.00,36.00,
"CA001064321","1966-02-12",44.06,21.92,0.00,0.00,
"CA001064321","1966-02-13",41.00,30.02,0.00,0.00,
"CA001064321","1966-02-14",35.06,28.04,5.00,5.00,
"CA001064321","1966-02-15",37.04,26.06,84.00,0.00,
"CA001064321","1966-02-16",41.00,33.08,378.00,0.00,
"CA001064321","1966-02-17",41.00,30.92,8.00,0.00,
"CA001064321","1966-02-18",37.94,33.98,25.00,0.00,
"CA001064321","1966-02-19",42.08,33.98,97.00,0.00,
"CA001064321","1966-02-20",39.92,26.96,203.00,0.00,
"CA001064321","1966-02-21",39.02,24.08,213.00,0.00,
"CA001064321","1966-02-22",42.98,24.98,13.00,0.00,
"CA001064321","1966-02-23",42.08,28.94,86.00,0.00,
"CA001064321","1966-02-24",37.94,33.98,41.00,0.00,
"CA001064321","1966-02-25",37.94,33.08,130.00,0.00,
"CA001064321","1966-02-26",39.02,32.00,56.00,18.00,
"CA001064321","1966-02-27",37.94,30.02,61.00,25.00,
"CA001064321","1966-02-28",37.94,26.96,30.00,10.00,
"CA001064321","1966-03-01",37.94,21.02,0.00,0.00,
"CA001064321","1966-03-02",37.04,17.06,0.00,0.00,
"CA001064321","1966-03-03",33.98,17.96,0.00,0.00,
"CA001064321","1966-03-04",41.00,17.96,0.00,0.00,
"CA001064321","1966-03-05",35.96,32.00,15.00,0.00,
"CA001064321","1966-03-06",37.94,32.00,279.00,10.00,
"CA001064321","1966-03-07",39.02,32.00,147.00,10.00,
"CA001064321","1966-03-08",42.08,32.00,97.00,0.00,
"CA001064321","1966-03-09",35.96,32.00,691.00,318.00,
"CA001064321","1966-03-10",35.06,30.02,86.00,13.00,
"CA001064321","1966-03-11",37.94,30.02,0.00,0.00,
"CA001064321","1966-03-12",35.96,32.00,274.00,10.00,
"CA001064321","1966-03-13",39.92,32.00,61.00,0.00,
"CA001064321","1966-03-14",44.96,33.98,18.00,0.00,
"CA001064321","1966-03-15",50.00,33.98,23.00,0.00,
"CA001064321","1966-03-16",44.96,24.98,0.00,0.00,
"CA001064321","1966-03-17",44.96,30.92,0.00,0.00,
"CA001064321","1966-03-18",44.06,21.92,13.00,0.00,
"CA001064321","1966-03-19",41.00,30.92,10.00,0.00,
"CA001064321","1966-03-20",42.08,24.98,0.00,0.00,
"CA001064321","1966-03-21",48.02,23.00,48.00,20.00,
"CA001064321","1966-03-22",35.96,32.00,325.00,0.00,
"CA001064321","1966-03-23",41.00,33.98,165.00,0.00,
"CA001064321","1966-03-24",44.96,33.98,0.00,0.00,
"CA001064321","1966-03-25",46.04,30.02,0.00,0.00,
"CA001064321","1966-03-26",42.08,30.02,74.00,0.00,
"CA001064321","1966-03-27",42.08,35.96,142.00,0.00,
"CA001064321","1966-03-28",42.98,35.96,1189.00,0.00,
"CA001064321","1966-03-29",44.06,37.04,526.00,0.00,
"CA001064321","1966-03-30",44.96,37.04,173.00,0.00,
"CA001064321","1966-03-31",41.00,33.08,450.00,0.00,
"CA001064321","1966-04-01",42.08,32.00,185.00,0.00,
"CA001064321","1966-04-02",48.92,35.06,0.00,0.00,
"CA001064321","1966-04-03",55.94,32.00,0.00,0.00,
"CA001064321","1966-04-04",57.92,33.08,0.00,0.00,
"CA001064321","1966-04-05",57.02,33.08,0.00,0.00,
"CA001064321","1966-04-06",64.04,33.08,0.00,0.00,
"CA001064321","1966-04-07",59.00,33.08,0.00,0.00,
"CA001064321","1966-04-08",50.00,35.96,0.00,0.00,
"CA001064321","1966-04-09",48.92,33.08,119.00,74.00,
"CA001064321","1966-04-10",30.02,21.02,8.00,0.00,
"CA001064321","1966-04-11",35.96,19.94,0.00,0.00,
"CA001064321","1966-04-12",42.98,17.96,178.00,178.00,
"CA001064321","1966-04-13",37.94,32.00,373.00,0.00,
"CA001064321","1966-04-14",46.04,32.00,84.00,0.00,
"CA001064321","1966-04-15",48.92,33.08,0.00,0.00,
"CA001064321","1966-04-16",51.98,28.04,0.00,0.00,
"CA001064321","1966-04-17",57.02,30.92,0.00,0.00,
"CA001064321","1966-04-18",60.08,32.00,0.00,0.00,
"CA001064321","1966-04-19",48.02,37.94,0.00,0.00,
"CA001064321","1966-04-20",51.98,39.92,0.00,0.00,
"CA001064321","1966-04-21",46.94,39.92,236.00,0.00,
"CA001064321","1966-04-22",46.04,39.02,135.00,0.00,
"CA001064321","1966-04-23",53.06,39.92,10.00,0.00,
"CA001064321","1966-04-24",51.98,39.02,0.00,0.00,
"CA001064321","1966-04-25",53.06,33.08,0.00,0.00,
"CA001064321","1966-04-26",55.94,30.92,0.00,0.00,
"CA001064321","1966-04-27",55.94,30.92,0.00,0.00,
"CA001064321","1966-04-28",55.04,35.06,0.00,0.00,
"CA001064321","1966-04-29",51.98,30.92,94.00,0.00,
"CA001064321","1966-04-30",46.94,37.94,127.00,0.00,
"CA001064321","1966-05-01",46.04,37.04,18.00,0.00,
"CA001064321","1966-05-02",48.02,33.08,142.00,0.00,
"CA001064321","1966-05-03",51.98,33.98,0.00,0.00,
"CA001064321","1966-05-04",59.00,33.08,0.00,0.00,
"CA001064321","1966-05-05",68.00,37.04,0.00,0.00,
"CA001064321","1966-05-06",64.94,41.00,3.00,0.00,
"CA001064321","1966-05-07",60.98,42.98,10.00,0.00,
"CA001064321","1966-05-08",57.92,42.08,0.00,0.00,
"CA001064321","1966-05-09",55.94,35.96,0.00,0.00,
"CA001064321","1966-05-10",62.96,35.96,0.00,0.00,
"CA001064321","1966-05-11",50.00,39.92,79.00,0.00,
"CA001064321","1966-05-12",53.06,39.02,0.00,0.00,
"CA001064321","1966-05-13",53.06,42.08,0.00,0.00,
"CA001064321","1966-05-14",46.94,39.92,36.00,0.00,
"CA001064321","1966-05-15",48.92,39.02,43.00,0.00,
"CA001064321","1966-05-16",46.94,37.04,28.00,0.00,
"CA001064321","1966-05-17",53.06,39.92,15.00,0.00,
"CA001064321","1966-05-18",46.94,41.00,231.00,0.00,
"CA001064321","1966-05-19",50.00,39.92,338.00,0.00,
"CA001064321","1966-05-20",48.02,35.06,41.00,0.00,
"CA001064321","1966-05-21",51.08,37.04,0.00,0.00,
"CA001064321","1966-05-22",46.04,28.94,117.00,0.00,
"CA001064321","1966-05-23",51.98,41.00,20.00,0.00,
"CA001064321","1966-05-24",46.94,42.08,470.00,0.00,
"CA001064321","1966-05-25",50.00,39.92,427.00,0.00,
"CA001064321","1966-05-26",50.00,37.04,76.00,0.00,
"CA001064321","1966-05-27",48.02,37.94,41.00,0.00,
"CA001064321","1966-05-28",51.98,37.04,5.00,0.00,
"CA001064321","1966-05-29",57.02,35.96,0.00,0.00,
"CA001064321","1966-05-30",62.96,37.04,0.00,0.00,
"CA001064321","1966-05-31",73.94,41.00,0.00,0.00,
"CA001064321","1966-06-01",77.00,44.06,0.00,0.00,
"CA001064321","1966-06-02",68.00,46.04,0.00,0.00,
"CA001064321","1966-06-03",62.06,48.02,0.00,0.00,
"CA001064321","1966-06-04",62.06,48.02,0.00,0.00,
"CA001064321","1966-06-05",64.04,48.02,0.00,0.00,
"CA001064321","1966-06-06",71.96,42.98,0.00,0.00,
"CA001064321","1966-06-07",69.08,48.02,0.00,0.00,
"CA001064321","1966-06-08",71.96,44.06,10.00,0.00,
"CA001064321","1966-06-09",60.08,51.08,61.00,0.00,
"CA001064321","1966-06-10",60.08,50.00,8.00,0.00,
"CA001064321","1966-06-11",59.00,44.06,18.00,0.00,
"CA001064321","1966-06-12",55.94,46.04,18.00,0.00,
"CA001064321","1966-06-13",53.96,44.96,91.00,0.00,
"CA001064321","1966-06-14",64.94,46.94,0.00,0.00,
"CA001064321","1966-06-15",78.08,48.92,0.00,0.00,
"CA001064321","1966-06-16",69.08,48.92,0.00,0.00,
"CA001064321","1966-06-17",60.08,51.08,107.00,0.00,
"CA001064321","1966-06-18",57.92,48.02,0.00,0.00,
"CA001064321","1966-06-19",59.00,44.06,0.00,0.00,
"CA001064321","1966-06-20",60.98,53.06,8.00,0.00,
"CA001064321","1966-06-21",59.00,46.04,18.00,0.00,
"CA001064321","1966-06-22",60.98,41.00,0.00,0.00,
"CA001064321","1966-06-23",64.04,44.96,0.00,0.00,
"CA001064321","1966-06-24",60.98,46.94,0.00,0.00,
"CA001064321","1966-06-25",66.92,44.96,13.00,0.00,
"CA001064321","1966-06-26",62.06,48.02,10.00,0.00,
"CA001064321","1966-06-27",66.02,42.98,41.00,0.00,
"CA001064321","1966-06-28",62.06,48.02,89.00,0.00,
"CA001064321","1966-06-29",55.04,44.96,23.00,0.00,
"CA001064321","1966-06-30",59.00,46.04,0.00,0.00,
"CA001064321","1966-07-01",75.92,42.98,0.00,0.00,
"CA001064321","1966-07-02",84.02,42.08,0.00,0.00,
"CA001064321","1966-07-03",77.00,42.08,0.00,0.00,
"CA001064321","1966-07-04",66.92,50.00,0.00,0.00,
"CA001064321","1966-07-05",82.04,46.94,0.00,0.00,
"CA001064321","1966-07-06",86.00,53.96,0.00,0.00,
"CA001064321","1966-07-07",75.02,53.96,0.00,0.00,
"CA001064321","1966-07-08",69.98,57.02,0.00,0.00,
"CA001064321","1966-07-09",59.00,51.98,71.00,0.00,
"CA001064321","1966-07-10",69.08,48.02,0.00,0.00,
"CA001064321","1966-07-11",80.06,46.94,0.00,0.00,
"CA001064321","1966-07-12",86.00,53.06,0.00,0.00,
"CA001064321","1966-07-13",82.94,55.04,0.00,0.00,
"CA001064321","1966-07-14",84.02,55.94,0.00,0.00,
"CA001064321","1966-07-15",77.00,55.94,20.00,0.00,
"CA001064321","1966-07-16",62.06,57.02,51.00,0.00,
"CA001064321","1966-07-17",73.04,53.96,18.00,0.00,
"CA001064321","1966-07-18",69.98,55.04,373.00,0.00,
"CA001064321","1966-07-19",53.96,48.92,76.00,0.00,
"CA001064321","1966-07-20",60.98,51.98,0.00,0.00,
"CA001064321","1966-07-21",66.02,53.06,0.00,0.00,
"CA001064321","1966-07-22",69.08,44.06,0.00,0.00,
"CA001064321","1966-07-23",73.04,53.96,0.00,0.00,
"CA001064321","1966-07-24",86.00,53.96,0.00,0.00,
"CA001064321","1966-07-25",77.00,53.96,0.00,0.00,
"CA001064321","1966-07-26",69.98,59.00,13.00,0.00,
"CA001064321","1966-07-27",66.92,57.92,25.00,0.00,
"CA001064321","1966-07-28",62.06,57.02,13.00,0.00,
"CA001064321","1966-07-29",62.06,53.96,0.00,0.00,
"CA001064321","1966-07-30",64.04,51.98,0.00,0.00,
"CA001064321","1966-07-31",60.08,42.08,76.00,0.00,
"CA001064321","1966-08-01",60.98,55.04,36.00,0.00,
"CA001064321","1966-08-02",64.04,48.02,10.00,0.00,
"CA001064321","1966-08-03",69.08,55.94,0.00,0.00,
"CA001064321","1966-08-04",73.04,50.00,0.00,0.00,
"CA001064321","1966-08-05",75.02,48.92,0.00,0.00,
"CA001064321","1966-08-06",78.08,51.08,0.00,0.00,
"CA001064321","1966-08-07",62.96,57.92,175.00,0.00,
"CA001064321","1966-08-08",60.98,53.96,76.00,0.00,
"CA001064321","1966-08-09",62.06,50.00,191.00,0.00,
"CA001064321","1966-08-10",62.96,46.04,0.00,0.00,
"CA001064321","1966-08-11",62.96,46.04,0.00,0.00,
"CA001064321","1966-08-12",59.00,51.08,102.00,0.00,
"CA001064321","1966-08-13",66.92,53.06,89.00,0.00,
"CA001064321","1966-08-14",64.04,53.96,51.00,0.00,
"CA001064321","1966-08-15",60.98,46.04,48.00,0.00,
"CA001064321","1966-08-16",62.96,51.08,0.00,0.00,
"CA001064321","1966-08-17",66.92,53.06,0.00,0.00,
"CA001064321","1966-08-18",75.92,46.04,0.00,0.00,
"CA001064321","1966-08-19",77.00,48.02,0.00,0.00,
"CA001064321","1966-08-20",71.96,48.02,0.00,0.00,
"CA001064321","1966-08-21",73.94,57.02,0.00,0.00,
"CA001064321","1966-08-22",82.04,55.94,0.00,0.00,
"CA001064321","1966-08-23",84.02,53.96,0.00,0.00,
"CA001064321","1966-08-24",82.94,50.00,0.00,0.00,
"CA001064321","1966-08-25",68.00,62.06,3.00,0.00,
"CA001064321","1966-08-26",57.02,51.08,320.00,0.00,
"CA001064321","1966-08-27",62.96,53.96,109.00,0.00,
"CA001064321","1966-08-28",64.94,53.06,38.00,0.00,
"CA001064321","1966-08-29",59.00,51.98,33.00,0.00,
"CA001064321","1966-08-30",62.06,51.98,15.00,0.00,
"CA001064321","1966-08-31",57.92,53.06,145.00,0.00,
"CA001064321","1966-09-01",62.06,51.08,3.00,0.00,
"CA001064321","1966-09-02",62.06,51.08,165.00,0.00,
"CA001064321","1966-09-03",62.06,48.92,246.00,0.00,
"CA001064321","1966-09-04",64.94,50.00,69.00,0.00,
"CA001064321","1966-09-05",60.98,48.92,0.00,0.00,
"CA001064321","1966-09-06",60.08,46.04,0.00,0.00,
"CA001064321","1966-09-07",62.06,39.02,0.00,0.00,
"CA001064321","1966-09-08",51.08,39.92,483.00,0.00,
"CA001064321","1966-09-09",57.02,48.02,51.00,0.00,
"CA001064321","1966-09-10",60.98,41.00,0.00,0.00,
"CA001064321","1966-09-11",69.08,39.92,0.00,0.00,
"CA001064321","1966-09-12",69.08,41.00,0.00,0.00,
"CA001064321","1966-09-13",66.02,42.08,0.00,0.00,
"CA001064321","1966-09-14",66.02,44.96,0.00,0.00,
"CA001064321","1966-09-15",60.08,46.94,76.00,0.00,
"CA001064321","1966-09-16",59.00,51.98,241.00,0.00,
"CA001064321","1966-09-17",60.98,44.06,61.00,0.00,
"CA001064321","1966-09-18",53.96,48.02,152.00,0.00,
"CA001064321","1966-09-19",59.00,44.96,107.00,0.00,
"CA001064321","1966-09-20",57.02,48.02,10.00,0.00,
"CA001064321","1966-09-21",66.92,46.04,0.00,0.00,
"CA001064321","1966-09-22",69.98,46.94,0.00,0.00,
"CA001064321","1966-09-23",68.00,50.00,0.00,0.00,
"CA001064321","1966-09-24",66.92,55.94,23.00,0.00,
"CA001064321","1966-09-25",60.08,55.04,10.00,0.00,
"CA001064321","1966-09-26",57.92,53.96,310.00,0.00,
"CA001064321","1966-09-27",55.04,48.92,196.00,0.00,
"CA001064321","1966-09-28",62.06,48.02,5.00,0.00,
"CA001064321","1966-09-29",62.06,44.96,20.00,0.00,
"CA001064321","1966-09-30",60.98,46.04,79.00,0.00,
"CA001064321","1966-10-01",60.08,46.94,0.00,0.00,
"CA001064321","1966-10-02",57.92,37.04,0.00,0.00,
"CA001064321","1966-10-03",60.08,46.04,0.00,0.00,
"CA001064321","1966-10-04",62.96,44.06,10.00,0.00,
"CA001064321","1966-10-05",59.00,50.00,249.00,0.00,
"CA001064321","1966-10-06",57.92,42.98,0.00,0.00,
"CA001064321","1966-10-07",51.08,42.98,467.00,0.00,
"CA001064321","1966-10-08",51.98,44.06,137.00,0.00,
"CA001064321","1966-10-09",50.00,37.94,198.00,0.00,
"CA001064321","1966-10-10",50.00,39.02,58.00,0.00,
"CA001064321","1966-10-11",46.94,37.04,0.00,0.00,
"CA001064321","1966-10-12",48.92,35.06,0.00,0.00,
"CA001064321","1966-10-13",48.02,30.92,109.00,0.00,
"CA001064321","1966-10-14",51.08,37.04,8.00,0.00,
"CA001064321","1966-10-15",50.00,39.92,498.00,0.00,
"CA001064321","1966-10-16",46.94,39.92,218.00,0.00,
"CA001064321","1966-10-17",44.96,39.02,546.00,0.00,
"CA001064321","1966-10-18",48.02,32.00,394.00,0.00,
"CA001064321","1966-10-19",42.98,33.08,175.00,0.00,
"CA001064321","1966-10-20",41.00,33.08,5.00,0.00,
"CA001064321","1966-10-21",39.02,33.98,109.00,0.00,
"CA001064321","1966-10-22",41.00,35.06,549.00,0.00,
"CA001064321","1966-10-23",55.94,37.04,1204.00,0.00,
"CA001064321","1966-10-24",46.04,37.94,0.00,0.00,
"CA001064321","1966-10-25",39.02,30.02,41.00,0.00,
"CA001064321","1966-10-26",44.96,33.08,0.00,0.00,
"CA001064321","1966-10-27",39.92,30.02,18.00,18.00,
"CA001064321","1966-10-28",42.08,32.00,480.00,0.00,
"CA001064321","1966-10-29",50.00,35.06,399.00,0.00,
"CA001064321","1966-10-30",46.04,42.08,18.00,0.00,
"CA001064321","1966-10-31",44.06,42.08,325.00,0.00,
"CA001064321","1966-11-01",50.00,42.08,185.00,0.00,
"CA001064321","1966-11-02",42.98,39.02,112.00,0.00,
"CA001064321","1966-11-03",48.02,37.94,173.00,0.00,
"CA001064321","1966-11-04",48.02,39.92,173.00,0.00,
"CA001064321","1966-11-05",44.96,33.98,0.00,0.00,
"CA001064321","1966-11-06",46.04,28.94,0.00,0.00,
"CA001064321","1966-11-07",41.00,30.92,0.00,0.00,
"CA001064321","1966-11-08",39.92,28.94,196.00,152.00,
"CA001064321","1966-11-09",39.02,32.00,8.00,0.00,
"CA001064321","1966-11-10",39.92,30.92,8.00,0.00,
"CA001064321","1966-11-11",35.96,32.00,25.00,25.00,
"CA001064321","1966-11-12",37.04,30.02,127.00,38.00,
"CA001064321","1966-11-13",39.02,30.02,76.00,0.00,
"CA001064321","1966-11-14",33.98,30.92,0.00,0.00,
"CA001064321","1966-11-15",32.00,26.96,0.00,0.00,
"CA001064321","1966-11-16",33.08,24.98,0.00,0.00,
"CA001064321","1966-11-17",35.06,23.00,0.00,0.00,
"CA001064321","1966-11-18",33.08,26.06,191.00,191.00,
"CA001064321","1966-11-19",35.96,32.00,211.00,0.00,
"CA001064321","1966-11-20",37.94,33.08,0.00,0.00,
"CA001064321","1966-11-21",33.98,24.08,0.00,0.00,
"CA001064321","1966-11-22",39.02,19.94,152.00,0.00,
"CA001064321","1966-11-23",42.08,24.08,831.00,0.00,
"CA001064321","1966-11-24",44.06,35.96,503.00,0.00,
"CA001064321","1966-11-25",42.08,37.04,99.00,0.00,
"CA001064321","1966-11-26",39.02,32.00,94.00,0.00,
"CA001064321","1966-11-27",35.96,32.00,20.00,0.00,
"CA001064321","1966-11-28",35.06,28.94,0.00,0.00,
"CA001064321","1966-11-29",28.94,23.00,0.00,0.00,
"CA001064321","1966-11-30",32.00,24.08,0.00,0.00,
"CA001064321","1966-12-01",32.00,26.06,25.00,25.00,
"CA001064321","1966-12-02",32.00,26.96,36.00,36.00,
"CA001064321","1966-12-03",35.96,28.04,0.00,0.00,
"CA001064321","1966-12-04",28.04,21.92,201.00,201.00,
"CA001064321","1966-12-05",26.96,19.04,0.00,0.00,
"CA001064321","1966-12-06",19.04,15.98,0.00,0.00,
"CA001064321","1966-12-07",15.98,10.94,0.00,0.00,
"CA001064321","1966-12-08",17.96,10.94,0.00,0.00,
"CA001064321","1966-12-09",21.92,14.00,76.00,76.00,
"CA001064321","1966-12-10",30.02,17.06,91.00,25.00,
"CA001064321","1966-12-11",35.96,24.98,168.00,0.00,
"CA001064321","1966-12-12",37.94,30.02,170.00,0.00,
"CA001064321","1966-12-13",41.00,32.00,307.00,0.00,
"CA001064321","1966-12-14",39.02,33.98,203.00,0.00,
"CA001064321","1966-12-15",44.06,35.06,168.00,0.00,
"CA001064321","1966-12-16",42.08,37.04,168.00,0.00,
"CA001064321","1966-12-17",42.08,35.96,236.00,0.00,
"CA001064321","1966-12-18",42.08,35.96,246.00,0.00,
"CA001064321","1966-12-19",42.08,33.98,64.00,0.00,
"CA001064321","1966-12-20",39.02,33.98,23.00,0.00,
"CA001064321","1966-12-21",35.06,30.92,170.00,0.00,
"CA001064321","1966-12-22",37.94,32.00,74.00,0.00,
"CA001064321","1966-12-23",37.94,33.98,66.00,0.00,
"CA001064321","1966-12-24",37.04,32.00,56.00,0.00,
"CA001064321","1966-12-25",35.06,32.00,0.00,0.00,
"CA001064321","1966-12-26",35.06,28.04,56.00,56.00,
"CA001064321","1966-12-27",35.96,28.04,89.00,89.00,
"CA001064321","1966-12-28",37.94,30.92,480.00,0.00,
"CA001064321","1966-12-29",44.06,33.98,155.00,0.00,
"CA001064321","1966-12-30",46.04,35.96,409.00,0.00,
"CA001064321","1966-12-31",42.98,33.98,64.00,0.00,
"CA001064321","1967-01-01",41.00,35.06,112.00,0.00,
"CA001064321","1967-01-02",39.92,33.08,305.00,0.00,
"CA001064321","1967-01-03",39.92,30.92,15.00,15.00,
"CA001064321","1967-01-04",30.92,24.98,0.00,0.00,
"CA001064321","1967-01-05",24.08,19.04,56.00,56.00,
"CA001064321","1967-01-06",37.04,23.00,351.00,30.00,
"CA001064321","1967-01-07",42.08,33.08,452.00,0.00,
"CA001064321","1967-01-08",37.94,33.08,89.00,89.00,
"CA001064321","1967-01-09",42.98,32.00,452.00,0.00,
"CA001064321","1967-01-10",42.08,30.92,295.00,0.00,
"CA001064321","1967-01-11",39.92,33.08,328.00,20.00,
"CA001064321","1967-01-12",37.94,30.02,203.00,0.00,
"CA001064321","1967-01-13",37.04,32.00,51.00,13.00,
"CA001064321","1967-01-14",39.92,30.92,566.00,203.00,
"CA001064321","1967-01-15",39.92,32.00,20.00,0.00,
"CA001064321","1967-01-16",39.92,35.06,0.00,0.00,
"CA001064321","1967-01-17",37.94,32.00,18.00,18.00,
"CA001064321","1967-01-18",35.06,32.00,163.00,38.00,
"CA001064321","1967-01-19",33.98,30.92,191.00,191.00,
"CA001064321","1967-01-20",35.96,30.02,137.00,137.00,
"CA001064321","1967-01-21",24.98,21.02,36.00,36.00,
"CA001064321","1967-01-22",21.02,15.08,0.00,0.00,
"CA001064321","1967-01-23",19.04,12.92,0.00,0.00,
"CA001064321","1967-01-24",17.06,8.96,0.00,0.00,
"CA001064321","1967-01-25",15.08,6.98,0.00,0.00,
"CA001064321","1967-01-26",17.96,8.96,0.00,0.00,
"CA001064321","1967-01-27",19.94,8.96,213.00,213.00,
"CA001064321","1967-01-28",33.98,15.98,191.00,191.00,
"CA001064321","1967-01-29",37.04,28.04,0.00,0.00,
"CA001064321","1967-01-30",44.06,28.94,193.00,53.00,
"CA001064321","1967-01-31",33.08,30.02,168.00,168.00,
"CA001064321","1967-02-01",37.04,28.94,688.00,86.00,
"CA001064321","1967-02-02",44.06,33.08,378.00,0.00,
"CA001064321","1967-02-03",41.00,30.02,572.00,0.00,
"CA001064321","1967-02-04",42.08,35.96,259.00,0.00,
"CA001064321","1967-02-05",42.98,35.06,406.00,0.00,
"CA001064321","1967-02-06",44.96,33.98,0.00,0.00,
"CA001064321","1967-02-07",39.92,33.98,107.00,0.00,
"CA001064321","1967-02-08",44.06,33.98,66.00,0.00,
"CA001064321","1967-02-09",41.00,33.98,437.00,0.00,
"CA001064321","1967-02-10",42.98,37.94,163.00,0.00,
"CA001064321","1967-02-11",41.00,,592.00,0.00,
"CA001064321","1967-02-12",37.04,,122.00,0.00,
"CA001064321","1967-02-13",37.04,30.02,36.00,0.00,
"CA001064321","1967-02-14",37.04,30.02,33.00,0.00,
"CA001064321","1967-02-15",39.02,32.00,30.00,0.00,
"CA001064321","1967-02-16",39.92,30.92,79.00,79.00,
"CA001064321","1967-02-17",33.08,26.96,94.00,94.00,
"CA001064321","1967-02-18",35.96,24.98,0.00,0.00,
"CA001064321","1967-02-19",41.00,28.04,292.00,0.00,
"CA001064321","1967-02-20",41.00,33.08,43.00,0.00,
"CA001064321","1967-02-21",39.92,32.00,25.00,25.00,
"CA001064321","1967-02-22",39.02,32.00,71.00,0.00,
"CA001064321","1967-02-23",35.06,32.00,236.00,0.00,
"CA001064321","1967-02-24",39.02,32.00,168.00,0.00,
"CA001064321","1967-02-25",41.00,33.08,114.00,76.00,
"CA001064321","1967-02-26",35.96,30.92,150.00,0.00,
"CA001064321","1967-02-27",41.00,30.92,368.00,0.00,
"CA001064321","1967-02-28",42.08,33.08,8.00,0.00,
"CA001064321","1967-03-01",42.08,33.08,0.00,0.00,
"CA001064321","1967-03-02",42.98,32.00,0.00,0.00,
"CA001064321","1967-03-03",42.98,26.06,0.00,0.00,
"CA001064321","1967-03-04",46.94,28.04,0.00,0.00,
"CA001064321","1967-03-05",42.98,26.96,0.00,0.00,
"CA001064321","1967-03-06",42.08,28.04,38.00,0.00,
"CA001064321","1967-03-07",42.98,33.98,239.00,0.00,
"CA001064321","1967-03-08",39.02,33.08,89.00,0.00,
"CA001064321","1967-03-09",37.94,28.94,0.00,0.00,
"CA001064321","1967-03-10",30.02,19.94,0.00,0.00,
"CA001064321","1967-03-11",28.94,19.04,0.00,0.00,
"CA001064321","1967-03-12",30.02,17.06,0.00,0.00,
"CA001064321","1967-03-13",35.06,12.02,0.00,0.00,
"CA001064321","1967-03-14",30.02,24.08,0.00,0.00,
"CA001064321","1967-03-15",33.08,21.92,0.00,0.00,
"CA001064321","1967-03-16",30.02,21.92,10.00,10.00,
"CA001064321","1967-03-17",37.04,21.92,0.00,0.00,
"CA001064321","1967-03-18",42.08,24.98,0.00,0.00,
"CA001064321","1967-03-19",44.06,32.00,36.00,0.00,
"CA001064321","1967-03-20",42.98,33.98,79.00,8.00,
"CA001064321","1967-03-21",42.98,32.00,58.00,20.00,
"CA001064321","1967-03-22",39.02,30.92,150.00,0.00,
"CA001064321","1967-03-23",42.98,32.00,206.00,173.00,
"CA001064321","1967-03-24",35.96,28.94,132.00,13.00,
"CA001064321","1967-03-25",35.96,28.94,0.00,0.00,
"CA001064321","1967-03-26",35.06,21.02,81.00,81.00,
"CA001064321","1967-03-27",35.96,26.06,64.00,64.00,
"CA001064321","1967-03-28",42.08,30.92,0.00,0.00,
"CA001064321","1967-03-29",42.08,28.94,0.00,0.00,
"CA001064321","1967-03-30",46.04,26.06,0.00,0.00,
"CA001064321","1967-03-31",48.92,28.04,0.00,0.00,
"CA001064321","1967-04-01",50.00,26.96,0.00,0.00,
"CA001064321","1967-04-02",53.06,28.94,0.00,0.00,
"CA001064321","1967-04-03",48.92,37.04,0.00,0.00,
"CA001064321","1967-04-04",57.02,26.96,0.00,0.00,
"CA001064321","1967-04-05",59.00,32.00,0.00,0.00,
"CA001064321","1967-04-06",57.02,28.94,58.00,0.00,
"CA001064321","1967-04-07",50.00,37.04,0.00,0.00,
"CA001064321","1967-04-08",44.96,30.92,36.00,0.00,
"CA001064321","1967-04-09",48.02,33.08,0.00,0.00,
"CA001064321","1967-04-10",51.98,30.02,0.00,0.00,
"CA001064321","1967-04-11",46.04,28.04,241.00,0.00,
"CA001064321","1967-04-12",42.98,33.98,13.00,0.00,
"CA001064321","1967-04-13",48.02,30.02,0.00,0.00,
"CA001064321","1967-04-14",51.08,28.04,58.00,0.00,
"CA001064321","1967-04-15",51.08,35.06,8.00,0.00,
"CA001064321","1967-04-16",55.04,35.06,0.00,0.00,
"CA001064321","1967-04-17",59.00,37.04,0.00,0.00,
"CA001064321","1967-04-18",57.02,32.00,0.00,0.00,
"CA001064321","1967-04-19",55.94,33.08,0.00,0.00,
"CA001064321","1967-04-20",57.92,33.98,0.00,0.00,
"CA001064321","1967-04-21",59.00,30.02,0.00,0.00,
"CA001064321","1967-04-22",55.94,32.00,0.00,0.00,
"CA001064321","1967-04-23",51.08,32.00,0.00,0.00,
"CA001064321","1967-04-24",53.06,37.94,15.00,0.00,
"CA001064321","1967-04-25",53.06,35.06,58.00,0.00,
"CA001064321","1967-04-26",46.94,35.96,8.00,0.00,
"CA001064321","1967-04-27",62.96,35.96,0.00,0.00,
"CA001064321","1967-04-28",66.02,35.96,0.00,0.00,
"CA001064321","1967-04-29",68.00,35.96,0.00,0.00,
"CA001064321","1967-04-30",69.98,35.06,0.00,0.00,
"CA001064321","1967-05-01",66.92,35.06,0.00,0.00,
"CA001064321","1967-05-02",64.04,35.06,0.00,0.00,
"CA001064321","1967-05-03",68.00,35.96,0.00,0.00,
"CA001064321","1967-05-04",60.08,37.04,0.00,0.00,
"CA001064321","1967-05-05",50.00,44.06,262.00,0.00,
"CA001064321","1967-05-06",53.06,35.06,208.00,0.00,